Showing default

CHINASAT 1D, 49505

Orbit data source: Space-Track

CHINASAT 1D, 49505 is a payload satellite owned by PLA SSF (CN) in GEO that was launched on Fri, 26 Nov 2021 UTC via a CHANG ZHENG 3B launch vehicle from the Xichang Space Center, China (XSC). Payload-class satellites include a variety of spacecraft equipped with specific instruments for various scientific and technological missions. These include communications satellites like Starlink; space stations such as the ISS; scientific satellites like the Hubble; Earth observation satellites from companies like Planet Labs, Umbra, and HawkEye 360; GPS; miniature CubeSats for education and research; and military/defense satellites.

Not visible in the next 10 days
Identifier
49505, 2021-114A
Orbit
GEO
Country
Flag of CNCN / PRC
Related business
Manufacturer
CAST?
Mission
Operational Defense Communications
Bus & Motor
DFH-4?, DFH-4 LAE
Mass
~5,250 kg wet, ~2,500 kg dry
Launch date (UTC)
2021-11-26 (4 years ago)
Launch vehicle
CHANG ZHENG 3B
Launch site
Xichang Space Center, China (XSC)
Object type
Payload
Rocket body
Debris
Shape & HBR
Box + 2 Pan, 15.0 m
Radar Cross Section
34.063 m², Large (>1 m²)

Expand to show TLE details & history
Last TLE update: 7 hours ago

TLE from 7 hours ago
0 CHINASAT 1D
1 49505U 21114A   25300.92704269 -.00000325  00000-0  00000-0 0  9992
2 49505   0.0246 296.4981 0002513 328.9234 235.0281  1.00271840 14502
Epoch: 2025-10-27T22:14Z
TLE epoch observation values (Epoch: 2025-10-27T22:14:56.488Z)
Latitude
-0.02333°
Longitude
130.13324°
Altitude
35,792.118 km
Speed
3.074 km/s
True Right ascension
09h 21m 33s
True Declination
0° 01' 24"
Sunlit
Object was in daylight at epoch
Visualization orbit readout
Latitude
Unknown
Longitude
Unknown
Altitude
Unknown
Speed
Unknown
Apparent Right ascension
Unknown
Apparent Declination
Unknown
Sunlit
N/A
Visualization observer readout
Local Sidereal Time
00:31:13
Azimuth
Unknown
Elevation
Unknown
Doppler factor
Unknown
Orbital elements
Apogee altitude
35,798.246 km
Perigee altitude
35,777.054 km
Semi-major axis
42,165.787 km
Eccentricity
0.00025
Inclination
0.0246°
RAAN
296.4981°
Arg. of periapsis
328.9234°
True anomaly
235.00451°
Mean anomaly
235.0281°
Eccentric anomaly
235.0163°
Mean motion
0.25067 °/min
Orbital period
1,436.15 mins
BSTAR
0
Loading maneuver chart data...
Computing Atmospheric mass density...
Loading historical data...
Loading historical data...
Loading historical data...
Loading historical data...
Loading historical data...
Loading historical data...
Loading historical data...
Other satellites on launch #114 in the year 2021 (2021-11-26 UTC)

Documentation

Showing up to 5 results
|